Terug naar catalogus

IUS DEB

ActiefHEO
NORAD 29037·DEBRIS·🇺🇸 United States

Gelanceerd Jul 23, 1999 vanaf Cape Canaveral Space Force Station

Loading…

Volgende Passages (komende 24 uur)

TLE

VersSource: Space-Track

Epoch: Sep 13, 2026, 21:09 UTC

1 29037U 99040G   26256.88173646  .00004913  00000-0  74787-3 0  9990
2 29037  28.4419 106.5484 4372249 131.8677 274.7859  6.68912797277444

Volg IUS DEB in realtime met AllMySat

Download on the App Store